Weather History for Mountain Home, ID

Change the Weather History Date:

Sunday, April 28, 2013

  Actual Average Record
Temperature  
Mean Temperature 61 °F 53 °F  
Max Temperature 73 °F 66 °F 92 °F (1987)
Min Temperature 48 °F 38 °F 21 °F (1913)
Degree Days  
Heating Degree Days 4 13  
Month to date heating degree days 453 452  
Cooling Degree Days 0 0  
Month to date cooling degree days 0 0  
Growing Degree Days 12 (Base 50)    
Moisture  
Dew Point 29 °F    
Average Humidity 27    
Maximum Humidity 43    
Minimum Humidity 20    
Precipitation  
Precipitation 0.00 in 0.03 in 0.70 in (1951)
Month to date precipitation 0.42 0.96  
Sea Level Pressure  
Sea Level Pressure 30.01 in    
Wind  
Wind Speed 12 mph (NW)    
Max Wind Speed 22 mph    
Max Gust Speed 28 mph    
Visibility 10 miles    
Events      
T = Trace of Precipitation, MM = Missing Value Source: NWS Daily Summary

Daily Weather History Graph

Daily Weather History Graph

Search for Another Location

Airport:

Trip Planner

Search our weather history database for the weather conditions in past years. The results will help you decide how hot, cold, wet, or windy it might be!

Date:

Astronomy

Apr. 28, 2013 Rise Set
Actual Time 6:41 AM MDT 8:41 PM MDT
Civil Twilight 6:10 AM MDT 9:12 PM MDT
Nautical Twilight 5:32 AM MDT 9:50 PM MDT
Astronomical Twilight 4:51 AM MDT 10:31 PM MDT
Moon No Moon Rise 8:59 AM MDT (4/28)
Length of Visible Light 15h 02m
Length of Day
14h 00m
Waning Gibbous, 88% of the Moon is Illuminated
Apr 28
Waning Gibbous
May 2
Last Quarter
May 9
New
May 17
First Quarter
May 24
Full

Hourly Weather History & Observations

Time (MDT) Temp. Dew Point Humidity Pressure Visibility Wind Dir Wind Speed Gust Speed Precip Events Conditions
12:58 AM 54.3 °F 26.1 °F 34% 30.00 in 10.0 mi NNW 3.5 mph - N/A   Clear
1:58 AM 52.3 °F 27.3 °F 38% 30.01 in 10.0 mi NW 9.2 mph - N/A   Clear
2:58 AM 54.0 °F 29.8 °F 40% 30.00 in 10.0 mi NW 10.4 mph - N/A   Clear
3:58 AM 53.2 °F 31.5 °F 43% 30.01 in 10.0 mi WNW 11.5 mph - N/A   Clear
4:58 AM 53.1 °F 30.2 °F 42% 30.02 in 10.0 mi NW 17.3 mph - N/A   Clear
5:58 AM 53.4 °F 28.8 °F 39% 30.02 in 10.0 mi NW 12.7 mph - N/A   Clear
6:58 AM 52.2 °F 28.8 °F 41% 30.05 in 10.0 mi NW 12.7 mph - N/A   Partly Cloudy
7:58 AM 53.8 °F 29.7 °F 40% 30.06 in 10.0 mi WNW 10.4 mph - N/A   Clear
8:58 AM 60.1 °F 28.0 °F 30% 30.05 in 10.0 mi WNW 10.4 mph - N/A   Clear
9:58 AM 64.2 °F 27.1 °F 25% 30.06 in 10.0 mi WNW 15.0 mph - N/A   Clear
10:58 AM 65.5 °F 27.1 °F 24% 30.05 in 10.0 mi NW 19.6 mph 24.2 mph N/A   Clear
11:58 AM 66.0 °F 27.9 °F 24% 30.06 in 10.0 mi NW 15.0 mph 21.9 mph N/A   Clear
12:48 PM 68.0 °F 26.6 °F 21% 30.08 in 10.0 mi WNW 16.1 mph 23.0 mph N/A   Clear
12:58 PM 68.2 °F 27.3 °F 22% 30.05 in 10.0 mi NW 12.7 mph 27.6 mph N/A   Clear
1:07 PM 68.0 °F 28.4 °F 23% 30.08 in 10.0 mi NNW 17.3 mph 24.2 mph N/A   Clear
1:44 PM 69.8 °F 26.6 °F 20% 30.07 in 10.0 mi WNW 16.1 mph 26.5 mph N/A   Clear
1:58 PM 70.2 °F 27.0 °F 20% 30.03 in 10.0 mi NW 12.7 mph 26.5 mph N/A   Clear
2:10 PM 69.8 °F 26.6 °F 20% 30.06 in 10.0 mi WNW 12.7 mph - N/A   Clear
2:45 PM 71.6 °F 28.4 °F 20% 30.05 in 10.0 mi WNW 15.0 mph 26.5 mph N/A   Clear
2:53 PM 71.6 °F 28.4 °F 20% 30.05 in 10.0 mi NNW 12.7 mph 23.0 mph N/A   Clear
2:58 PM 71.4 °F 28.6 °F 20% 30.01 in 10.0 mi WNW 13.8 mph 21.9 mph N/A   Clear
3:22 PM 71.6 °F 28.4 °F 20% 30.04 in 10.0 mi WNW 16.1 mph 26.5 mph N/A   Clear
3:26 PM 71.6 °F 28.4 °F 20% 30.03 in 10.0 mi NNW 21.9 mph 26.5 mph N/A   Clear
3:27 PM 71.6 °F 28.4 °F 20% 30.03 in 10.0 mi NNW 20.7 mph 26.5 mph N/A   Clear
3:58 PM 71.4 °F 29.5 °F 21% 29.97 in 10.0 mi NW 13.8 mph 26.5 mph N/A   Clear
4:01 PM 71.6 °F 30.2 °F 22% 30.01 in 10.0 mi WNW 13.8 mph 26.5 mph N/A   Clear
4:35 PM 73.4 °F 30.2 °F 20% 29.99 in 10.0 mi WNW 18.4 mph 27.6 mph N/A   Clear
4:58 PM 72.3 °F 29.5 °F 20% 29.95 in 10.0 mi NW 18.4 mph 27.6 mph N/A   Clear
5:58 PM 71.8 °F 29.1 °F 21% 29.93 in 10.0 mi NNW 18.4 mph - N/A   Clear
6:58 PM 71.4 °F 30.0 °F 22% 29.92 in 10.0 mi NNW 15.0 mph 23.0 mph N/A   Clear
7:58 PM 68.4 °F 30.2 °F 24% 29.93 in 10.0 mi NNW 16.1 mph - N/A   Clear
8:58 PM 64.9 °F 30.6 °F 28% 29.93 in 10.0 mi NNW 12.7 mph - N/A   Clear
9:58 PM 59.5 °F 30.4 °F 33% 29.95 in 10.0 mi NW 9.2 mph - N/A   Clear
10:58 PM 52.0 °F 28.9 °F 41% 29.96 in 10.0 mi WNW 9.2 mph - N/A   Clear
11:58 PM 51.1 °F 29.3 °F 43% 29.97 in 10.0 mi WNW 3.5 mph - N/A   Clear